Powrót do katalogu

IRIDIUM 33 DEB

AktywnyPO
NORAD 46435·DEBRIS·🇺🇸 United States

Wystrzelony Sep 14, 1997 z Baikonur Cosmodrome

Loading…

Następne Przeloty (najbliższe 24 godziny)

TLE

ŚwieżeSource: Space-Track

Epoka: Sep 11, 2026, 06:25 UTC

1 46435U 97051ABN 26254.26801103  .00009581  00000-0  23602-2 0  9992
2 46435  86.2719  75.5009 0202237 100.0801  23.1832 14.40414166118324

Śledź IRIDIUM 33 DEB w czasie rzeczywistym z AllMySat

Download on the App Store